sat.trackr.live / text

‹ back to catalog

STARLINK-6149

NORAD 57122 · 2023-090X

PAYLOAD ACTIVE UNKNOWN

§ Identity

Operator
Country
US
Launch date
2023-06-23
Launch site
AFETR
Launch vehicle
Mass (kg)
RCS (m²)

Purposes: comms

External: N2YO · Heavens-Above · Gunter

§ Orbital elements

Epoch: 2026-09-20T10:37:37.313472Z

Period
94.27 min
Inclination
43.0018°
Eccentricity
0.0000884
Mean motion
15.27572634 rev/d
Perigee alt
482.5 km
Apogee alt
483.7 km
Semi-major
6,861.2 km
B*
-1.2813e-5
RAAN
262.0041°
Arg perigee
268.0414°
Mean anomaly
92.0337°
Rev number
18,011

§ Raw data

STARLINK-61491 57122U 23090X   26263.44279298 -.00000614  00000+0 -12813-4 0  99962 57122  43.0018 262.0041 0000884 268.0414  92.0337 15.27572634180112

JSON: /api/v1/satellites/57122 · /tle

For live sub-satellite position, see the globe view (requires WebGL).

§ Visibility from observer

Set your observer location to see the next 7 days of passes ≥ 10°. The values pass through the URL so the page stays shareable.

No JS? Fill the form by hand. The geolocation button needs JavaScript.